Tracking 29892 objects as of 21-Nov-2024
HD Live streaming from Space Station
objects crossing your sky now

COSMOS 1823 DEB

Track COSMOS 1823 DEB now!
10-day predictions


NORAD ID: 39834
Int'l Code: 1987-020FJ
Perigee: 1,485.9 km
Apogee: 1,558.7 km
Inclination: 73.6 °
Period: 116.3 minutes
Semi major axis: 7893 km
RCS: Unknown
Launch date: February 20, 1987
Source: Commonwealth of Independent States (former USSR) (CIS)
Launch site: PLESETSK MISSILE AND SPACE COMPLEX (PKMTR)

Note: This is SATELLITE DEBRIS
Your satellite tracking list
Your tracking list is empty




NASA's NSSDC Master Catalog

Two Line Element Set (TLE):
1 39834U 87020FJ  24324.35527927  .00000014  00000-0  24028-3 0  9993
2 39834  73.5996 204.5018 0046083 114.8570 245.7274 12.37982921714866
Source of the keplerian elements: AFSPC